Change the Weather History Date:

Tuesday, December 13, 2011

  Actual Average Record
Temperature  
Mean Temperature 40 °F -  
Max Temperature 44 °F 38 °F 61 °F (1991)
Min Temperature 35 °F 21 °F -3 °F (1989)
Degree Days  
Heating Degree Days 26    
Moisture  
Dew Point 34 °F    
Average Humidity 80    
Maximum Humidity 93    
Minimum Humidity 70    
Precipitation  
Precipitation 0.00 in - - ()
Sea Level Pressure  
Sea Level Pressure 30.38 in    
Wind  
Wind Speed 3 mph (South)    
Max Wind Speed 10 mph    
Max Gust Speed -    
Visibility 9 miles    
Events      
Averages and records for this station are not official NWS values.
T = Trace of Precipitation, MM = Missing Value Source: NWS Daily Summary

Daily Weather History Graph

Daily Weather History Graph

Search for Another Location

Airport or City:

Trip Planner

Search our weather history database for the weather conditions in past years. The results will help you decide how hot, cold, wet, or windy it might be!

Date:

Astronomy

Dec. 13, 2011 Rise Set
Actual Time 7:07 AM CST 4:23 PM CST
Civil Twilight 6:36 AM CST 4:54 PM CST
Nautical Twilight 6:02 AM CST 5:28 PM CST
Astronomical Twilight 5:28 AM CST 6:02 PM CST
Moon 7:38 PM CST (12/13) 9:17 AM CST (12/13)
Length of Visible Light 10h 17m
Length of Day
9h 15m
Waning Gibbous, 90% of the Moon is Illuminated
Dec 13
Waning Gibbous
Dec 17
Last Quarter
Dec 24
New
Jan 1
First Quarter
Jan 9
Full

Hourly Weather History & Observations

Time (CST) Temp. Windchill Dew Point Humidity Pressure Visibility Wind Dir Wind Speed Gust Speed Precip Events Conditions
12:17 AM 35.6 °F - 28.4 °F 75% 30.40 in 10.0 mi Calm Calm - N/A   Overcast
12:35 AM 37.4 °F - 28.4 °F 70% 30.39 in 10.0 mi Calm Calm - N/A   Overcast
12:55 AM 35.6 °F - 28.4 °F 75% 30.39 in 10.0 mi Calm Calm - N/A   Overcast
1:15 AM 35.6 °F - 28.4 °F 75% 30.39 in 10.0 mi Calm Calm - N/A   Overcast
1:35 AM 37.4 °F 33.8 °F 28.4 °F 70% 30.39 in 10.0 mi South 4.6 mph - N/A   Overcast
1:55 AM 37.4 °F 33.8 °F 28.4 °F 70% 30.39 in 10.0 mi South 4.6 mph - N/A   Overcast
2:15 AM 37.4 °F 33.8 °F 28.4 °F 70% 30.39 in 10.0 mi South 4.6 mph - N/A   Overcast
2:35 AM 37.4 °F 33.8 °F 30.2 °F 75% 30.39 in 10.0 mi South 4.6 mph - N/A   Overcast
2:55 AM 37.4 °F - 30.2 °F 75% 30.39 in 10.0 mi Calm Calm - N/A   Overcast
3:15 AM 37.4 °F - 30.2 °F 75% 30.39 in 10.0 mi Calm Calm - N/A   Overcast
3:35 AM 37.4 °F - 30.2 °F 75% 30.38 in 10.0 mi Calm Calm - N/A   Overcast
3:55 AM 37.4 °F - 30.2 °F 75% 30.38 in 10.0 mi Calm Calm - N/A   Overcast
4:15 AM 37.4 °F - 30.2 °F 75% 30.38 in 10.0 mi Calm Calm - N/A   Overcast
4:35 AM 37.4 °F - 30.2 °F 75% 30.38 in 10.0 mi Calm Calm - N/A   Overcast
4:55 AM 37.4 °F 34.9 °F 30.2 °F 75% 30.39 in 10.0 mi SSE 3.5 mph - N/A   Overcast
5:16 AM 37.4 °F - 30.2 °F 75% 30.39 in 10.0 mi Calm Calm - N/A   Overcast
5:35 AM 37.4 °F 34.9 °F 32.0 °F 81% 30.39 in 10.0 mi South 3.5 mph - N/A   Overcast
5:55 AM 37.4 °F 34.9 °F 32.0 °F 81% 30.39 in 10.0 mi South 3.5 mph - N/A   Overcast
6:15 AM 37.4 °F 33.8 °F 32.0 °F 81% 30.39 in 10.0 mi South 4.6 mph - N/A   Light Drizzle
6:35 AM 37.4 °F 33.8 °F 33.8 °F 87% 30.39 in 10.0 mi South 4.6 mph - N/A   Overcast
6:55 AM 37.4 °F 32.8 °F 33.8 °F 87% 30.40 in 10.0 mi South 5.8 mph - N/A   Overcast
7:15 AM 37.4 °F 33.8 °F 33.8 °F 87% 30.39 in 10.0 mi SSW 4.6 mph - N/A   Overcast
7:36 AM 37.4 °F 32.8 °F 33.8 °F 87% 30.39 in 7.0 mi SSW 5.8 mph - N/A   Overcast
7:55 AM 39.2 °F 35.9 °F 33.8 °F 81% 30.40 in 10.0 mi SSW 4.6 mph - N/A   Overcast
8:16 AM 39.2 °F - 33.8 °F 81% 30.40 in 10.0 mi Calm Calm - N/A   Overcast
8:35 AM 39.2 °F - 33.8 °F 81% 30.41 in 10.0 mi Calm Calm - N/A   Overcast
8:55 AM 39.2 °F - 35.6 °F 87% 30.42 in 10.0 mi Calm Calm - N/A   Overcast
9:15 AM 39.2 °F 35.9 °F 35.6 °F 87% 30.41 in 10.0 mi South 4.6 mph - N/A   Overcast
9:35 AM 41.0 °F 38.0 °F 35.6 °F 81% 30.42 in 10.0 mi South 4.6 mph - N/A   Overcast
9:55 AM 42.8 °F 38.6 °F 35.6 °F 76% 30.41 in 7.0 mi South 6.9 mph - N/A   Unknown
10:15 AM 42.8 °F 38.0 °F 35.6 °F 76% 30.41 in 10.0 mi South 8.1 mph - N/A   Overcast
10:35 AM 42.8 °F 37.0 °F 35.6 °F 76% 30.41 in 10.0 mi SSW 10.4 mph - N/A   Overcast
10:57 AM 42.8 °F 37.5 °F 37.4 °F 81% 30.40 in 10.0 mi South 9.2 mph - N/A   Overcast
11:15 AM 42.8 °F 37.0 °F 37.4 °F 81% 30.39 in 10.0 mi South 10.4 mph - N/A   Overcast
11:35 AM 42.8 °F 38.0 °F 37.4 °F 81% 30.39 in 10.0 mi South 8.1 mph - N/A   Overcast
11:55 AM 44.6 °F 40.2 °F 37.4 °F 76% 30.39 in 10.0 mi SSW 8.1 mph - N/A   Overcast
12:15 PM 44.6 °F 39.7 °F 37.4 °F 76% 30.37 in 10.0 mi South 9.2 mph - N/A   Overcast
12:35 PM 44.6 °F 39.7 °F 37.4 °F 76% 30.36 in 10.0 mi South 9.2 mph - N/A   Overcast
12:55 PM 44.6 °F 40.2 °F 37.4 °F 76% 30.35 in 10.0 mi South 8.1 mph - N/A   Overcast
1:15 PM 42.8 °F 37.0 °F 37.4 °F 81% 30.36 in 10.0 mi South 10.4 mph - N/A   Overcast
1:35 PM 42.8 °F 38.0 °F 39.2 °F 87% 30.35 in 10.0 mi South 8.1 mph - N/A   Overcast
1:55 PM 42.8 °F 38.0 °F 37.4 °F 81% 30.36 in 10.0 mi SSW 8.1 mph - N/A   Overcast
2:15 PM 42.8 °F 38.6 °F 39.2 °F 87% 30.35 in 10.0 mi South 6.9 mph - N/A   Overcast
2:35 PM 42.8 °F 39.3 °F 39.2 °F 87% 30.34 in 10.0 mi South 5.8 mph - N/A   Overcast
2:58 PM 42.8 °F 38.0 °F 39.2 °F 87% 30.34 in 10.0 mi South 8.1 mph - N/A   Overcast
3:15 PM 42.8 °F 38.6 °F 37.4 °F 81% 30.33 in 10.0 mi South 6.9 mph - N/A   Overcast
3:35 PM 42.8 °F 37.5 °F 39.2 °F 87% 30.33 in 10.0 mi South 9.2 mph - N/A   Overcast
3:55 PM 42.8 °F 38.6 °F 37.4 °F 81% 30.33 in 7.0 mi South 6.9 mph - N/A   Overcast
4:15 PM 42.8 °F 40.1 °F 37.4 °F 81% 30.34 in 7.0 mi South 4.6 mph - N/A   Overcast
4:35 PM 42.8 °F 40.1 °F 37.4 °F 81% 30.33 in 7.0 mi SSE 4.6 mph - N/A   Overcast
4:55 PM 42.8 °F 41.1 °F 37.4 °F 81% 30.33 in 7.0 mi South 3.5 mph - N/A   Overcast
5:15 PM 42.8 °F 39.3 °F 39.2 °F 87% 30.33 in 7.0 mi South 5.8 mph - N/A   Overcast
5:35 PM 42.8 °F 39.3 °F 39.2 °F 87% 30.34 in 7.0 mi South 5.8 mph - N/A   Overcast
5:55 PM 41.0 °F 38.0 °F 39.2 °F 93% 30.34 in 5.0 mi South 4.6 mph - N/A   Overcast
6:15 PM 41.0 °F 39.0 °F 39.2 °F 93% 30.32 in 4.0 mi SE 3.5 mph - N/A   Overcast
6:35 PM 41.0 °F 38.0 °F 39.2 °F 93% 30.33 in 4.0 mi South 4.6 mph - N/A   Overcast
6:55 PM 41.0 °F 39.0 °F 39.2 °F 93% 30.33 in 4.0 mi SSE 3.5 mph - N/A   Overcast
7:15 PM 41.0 °F 39.0 °F 39.2 °F 93% 30.33 in 2.5 mi SSE 3.5 mph - N/A   Overcast
7:35 PM 41.0 °F 37.1 °F 39.2 °F 93% 30.33 in 1.8 mi SSE 5.8 mph - N/A Rain Light Rain
7:55 PM 41.0 °F 37.1 °F 39.2 °F 93% 30.31 in 1.8 mi SSE 5.8 mph - 0.01 in Rain Rain
8:15 PM 41.0 °F 36.4 °F 39.2 °F 93% 30.31 in 2.0 mi SSE 6.9 mph - 0.01 in Rain Rain
8:35 PM 41.0 °F 37.1 °F 39.2 °F 93% 30.31 in 2.5 mi SSE 5.8 mph - 0.01 in   Drizzle
8:55 PM 39.2 °F 35.9 °F 39.2 °F 100% 30.29 in 1.8 mi SE 4.6 mph - 0.02 in Rain Rain
9:15 PM 39.2 °F 35.0 °F 39.2 °F 100% 30.28 in 2.0 mi SE 5.8 mph - N/A Rain Light Rain
9:35 PM 39.2 °F 35.9 °F 39.2 °F 100% 30.28 in 2.5 mi SSE 4.6 mph - 0.01 in Rain Rain
9:55 PM 39.2 °F 37.0 °F 39.2 °F 100% 30.29 in 3.0 mi SSE 3.5 mph - 0.03 in Rain Light Rain
10:15 PM 41.0 °F 39.0 °F 39.2 °F 93% 30.29 in 3.0 mi SSE 3.5 mph - 0.02 in Rain Rain
10:35 PM 41.0 °F 38.0 °F 39.2 °F 93% 30.29 in 2.5 mi SSE 4.6 mph - 0.08 in Rain Rain
10:55 PM 41.0 °F 38.0 °F 39.2 °F 93% 30.28 in 4.0 mi SE 4.6 mph - 0.13 in Rain Rain
11:15 PM 41.0 °F 38.0 °F 39.2 °F 93% 30.28 in 4.0 mi SSE 4.6 mph - 0.02 in Rain Rain
11:35 PM 41.0 °F 38.0 °F 39.2 °F 93% 30.28 in 4.0 mi SE 4.6 mph - 0.05 in Rain Light Rain
11:55 PM 39.2 °F 34.2 °F 39.2 °F 100% 30.27 in 4.0 mi SE 6.9 mph - 0.09 in Rain Rain